Tracking 19199 objects as of 25-Jun-2018
HD Live streaming from Space Station
objects crossing your sky now

PUCP-SAT 1

Track PUCP-SAT 1 now!
10-day predictions
PUCP-SAT 1 is classified as:


NORAD ID: 39442
Int'l Code: 2013-066AC
Perigee: 580.2 km
Apogee: 626.6 km
Inclination: 97.6 °
Period: 96.6 minutes
Semi major axis: 6974 km
RCS: Unknown
Launch date: November 21, 2013
Source: PERU (PER)
Launch site: Orenburg, Russia (OREN)
Uplink (MHz): 145.840
Downlink (MHz): 145.840/437.200
Beacon (MHz):
Mode: 1200bps AFSK
Call sign:
Status: Inactive

aabbcc
Your satellite tracking list
Your tracking list is empty




NASA's NSSDC Master Catalog

Two Line Element Set (TLE):
1 39442U 13066AC  18175.36936000 +.00000455 +00000-0 +51678-4 0  9992
2 39442 097.5983 228.7741 0033312 067.9142 292.5608 14.90535277247500
Source of the keplerian elements: AFSPC